When you browse on this site, cookies collect data to enhance your experience and personalize the content and advertising you see.
Visit our Privacy Policy to learn more. By continuing to use the site, you agree to this use of cookies and data.
  • In Latvia
  • List of Countries
  • For 7 days
  • Water Temperature
  • Satellite Maps
  • Weather Map
  • Weather Widgets
  • user-avatar
    Login

    Hourly Weather Satif

    Today, 25 March, Monday

    Time Temperature Precipitation Wind Pressure Humidity
    00:00 +8°C° 0 mm 3 mps 674 mmHg 65%
    01:00 +8°C° 0 mm 3 mps 674 mmHg 67%
    02:00 +7°C° 0 mm 2 mps 673 mmHg 69%
    03:00 +7°C° 0 mm 2 mps 673 mmHg 71%
    04:00 +7°C° 0 mm 2 mps 673 mmHg 72%
    05:00 +7°C° 0 mm 2 mps 673 mmHg 73%
    06:00 +7°C° 0 mm 2 mps 673 mmHg 74%
    07:00 +9°C° 0 mm 2 mps 673 mmHg 66%
    08:00 +12°C° 0 mm 2 mps 674 mmHg 59%
    09:00 +13°C° 0 mm 3 mps 674 mmHg 51%
    10:00 +14°C° 0 mm 3 mps 674 mmHg 48%
    11:00 +15°C° 0 mm 4 mps 674 mmHg 44%
    12:00 +17°C° 0 mm 4 mps 674 mmHg 41%
    13:00 +15°C° 0.3 mm 4 mps 674 mmHg 42%
    14:00 +15°C° 0.3 mm 4 mps 673 mmHg 44%
    15:00 +15°C° 0.3 mm 4 mps 672 mmHg 45%
    16:00 +14°C° 0.3 mm 3 mps 672 mmHg 52%
    17:00 +13°C° 0.3 mm 3 mps 671 mmHg 58%
    18:00 +12°C° 0.3 mm 2 mps 671 mmHg 65%
    19:00 +11°C° 0 mm 1 mps 671 mmHg 68%
    20:00 +11°C° 0 mm 1 mps 671 mmHg 72%
    21:00 +9°C° 0 mm 0 mps 671 mmHg 75%
    22:00 +8°C° 0 mm 0 mps 671 mmHg 76%
    23:00 +8°C° 0 mm 0 mps 671 mmHg 77%

    Tomorrow, 26 March, Tuesday

    Time Temperature Precipitation Wind Pressure Humidity
    00:00 +8°C° 0 mm 0 mps 670 mmHg 78%
    01:00 +7°C° 0 mm 0 mps 670 mmHg 79%
    02:00 +7°C° 0 mm 0 mps 670 mmHg 80%
    03:00 +7°C° 0 mm 0 mps 670 mmHg 81%
    04:00 +7°C° 0 mm 1 mps 670 mmHg 83%
    05:00 +7°C° 0 mm 1 mps 670 mmHg 86%
    06:00 +6°C° 0 mm 2 mps 670 mmHg 89%
    07:00 +7°C° 0 mm 2 mps 670 mmHg 85%
    08:00 +8°C° 0 mm 2 mps 671 mmHg 81%
    09:00 +9°C° 0 mm 3 mps 671 mmHg 78%
    10:00 +10°C° 0 mm 3 mps 671 mmHg 76%
    11:00 +10°C° 0 mm 3 mps 672 mmHg 74%
    12:00 +11°C° 0 mm 3 mps 672 mmHg 72%
    13:00 +10°C° 0.3 mm 3 mps 672 mmHg 74%
    14:00 +9°C° 0.3 mm 3 mps 671 mmHg 76%
    15:00 +9°C° 0.3 mm 3 mps 671 mmHg 78%
    16:00 +8°C° 0.3 mm 3 mps 671 mmHg 80%
    17:00 +7°C° 0.3 mm 3 mps 671 mmHg 82%
    18:00 +7°C° 0.3 mm 3 mps 671 mmHg 83%
    19:00 +5°C° 0.1 mm 3 mps 671 mmHg 84%
    20:00 +5°C° 0.1 mm 3 mps 671 mmHg 84%
    21:00 +4°C° 0.1 mm 3 mps 672 mmHg 84%
    22:00 +4°C° 0.1 mm 3 mps 672 mmHg 84%
    23:00 +4°C° 0.1 mm 3 mps 671 mmHg 84%

    Day after tomorrow, 27 March, Wednesday

    Time Temperature Precipitation Wind Pressure Humidity
    00:00 +3°C° 0.1 mm 3 mps 671 mmHg 84%
    01:00 +3°C° 0.1 mm 3 mps 671 mmHg 84%
    02:00 +3°C° 0.1 mm 3 mps 671 mmHg 84%
    03:00 +3°C° 0.1 mm 3 mps 671 mmHg 84%
    04:00 +4°C° 0.9 mm 2 mps 671 mmHg 84%
    05:00 +3°C° 0.9 mm 2 mps 671 mmHg 85%
    06:00 +3°C° 0.9 mm 2 mps 671 mmHg 86%
    07:00 +4°C° 0.3 mm 2 mps 671 mmHg 84%
    08:00 +4°C° 0.3 mm 2 mps 671 mmHg 82%
    09:00 +4°C° 0.3 mm 2 mps 671 mmHg 81%
    10:00 +5°C° 0.1 mm 2 mps 671 mmHg 79%
    11:00 +5°C° 0.1 mm 2 mps 671 mmHg 77%
    12:00 +5°C° 0.1 mm 2 mps 671 mmHg 76%
    13:00 +5°C° 0.2 mm 2 mps 671 mmHg 76%
    14:00 +6°C° 0.2 mm 2 mps 671 mmHg 77%
    15:00 +6°C° 0.2 mm 2 mps 671 mmHg 78%
    16:00 +6°C° 0.1 mm 2 mps 671 mmHg 80%
    17:00 +5°C° 0.1 mm 2 mps 671 mmHg 82%
    18:00 +6°C° 0.1 mm 1 mps 671 mmHg 85%
    19:00 +6°C° 0 mm 1 mps 671 mmHg 88%
    20:00 +6°C° 0 mm 1 mps 672 mmHg 91%
    21:00 +5°C° 0 mm 2 mps 672 mmHg 94%
    22:00 +4°C° 0 mm 2 mps 672 mmHg 94%
    23:00 +4°C° 0 mm 2 mps 672 mmHg 95%

    28 March, Thursday

    Time Temperature Precipitation Wind Pressure Humidity
    00:00 +4°C° 0 mm 2 mps 672 mmHg 95%
    01:00 +4°C° 0 mm 2 mps 672 mmHg 95%
    02:00 +4°C° 0 mm 2 mps 672 mmHg 94%
    03:00 +5°C° 0 mm 1 mps 672 mmHg 93%
    04:00 +5°C° 0 mm 1 mps 672 mmHg 92%
    05:00 +5°C° 0 mm 1 mps 672 mmHg 91%
    06:00 +5°C° 0 mm 1 mps 672 mmHg 90%
    07:00 +5°C° 0 mm 2 mps 673 mmHg 85%
    08:00 +6°C° 0 mm 2 mps 673 mmHg 80%
    09:00 +6°C° 0 mm 2 mps 674 mmHg 75%
    10:00 +7°C° 0 mm 2 mps 674 mmHg 71%
    11:00 +8°C° 0 mm 2 mps 674 mmHg 67%
    12:00 +9°C° 0 mm 2 mps 674 mmHg 63%
    13:00 +9°C° 0.1 mm 2 mps 674 mmHg 62%
    14:00 +9°C° 0.1 mm 3 mps 674 mmHg 62%
    15:00 +10°C° 0.1 mm 3 mps 673 mmHg 61%
    16:00 +9°C° 0.1 mm 3 mps 673 mmHg 68%
    17:00 +8°C° 0.1 mm 3 mps 673 mmHg 75%
    18:00 +7°C° 0.1 mm 3 mps 673 mmHg 82%
    19:00 +5°C° 0 mm 3 mps 674 mmHg 85%
    20:00 +6°C° 0 mm 2 mps 674 mmHg 88%
    21:00 +6°C° 0 mm 1 mps 675 mmHg 91%
    22:00 +6°C° 0 mm 1 mps 674 mmHg 93%
    23:00 +5°C° 0 mm 1 mps 674 mmHg 94%

    29 March, Friday

    Time Temperature Precipitation Wind Pressure Humidity
    00:00 +4°C° 0 mm 0 mps 674 mmHg 95%
    01:00 +3°C° 0 mm 0 mps 674 mmHg 96%
    02:00 +3°C° 0 mm 0 mps 674 mmHg 96%
    03:00 +3°C° 0 mm 0 mps 674 mmHg 96%
    04:00 +3°C° 0 mm 0 mps 674 mmHg 96%
    05:00 +3°C° 0 mm 0 mps 674 mmHg 96%
    06:00 +3°C° 0 mm 0 mps 674 mmHg 96%
    07:00 +6°C° 0 mm 1 mps 675 mmHg 87%
    08:00 +8°C° 0 mm 1 mps 676 mmHg 78%
    09:00 +9°C° 0 mm 1 mps 677 mmHg 69%
    10:00 +10°C° 0.1 mm 1 mps 677 mmHg 65%
    11:00 +11°C° 0.1 mm 1 mps 677 mmHg 60%
    12:00 +12°C° 0.1 mm 1 mps 677 mmHg 55%
    13:00 +12°C° 0.3 mm 1 mps 676 mmHg 56%
    14:00 +12°C° 0.3 mm 1 mps 676 mmHg 56%
    15:00 +13°C° 0.3 mm 1 mps 676 mmHg 56%
    16:00 +12°C° 0.3 mm 2 mps 676 mmHg 63%
    17:00 +10°C° 0.3 mm 2 mps 676 mmHg 69%
    18:00 +10°C° 0.3 mm 2 mps 675 mmHg 75%
    19:00 +9°C° 0.3 mm 2 mps 676 mmHg 78%
    20:00 +8°C° 0.3 mm 2 mps 676 mmHg 82%
    21:00 +9°C° 0.3 mm 1 mps 676 mmHg 85%
    22:00 +9°C° 0.1 mm 1 mps 676 mmHg 86%
    23:00 +8°C° 0.1 mm 1 mps 676 mmHg 86%

    30 March, Saturday

    Time Temperature Precipitation Wind Pressure Humidity
    00:00 +8°C° 0.1 mm 1 mps 675 mmHg 86%
    01:00 +7°C° 0 mm 1 mps 675 mmHg 86%
    02:00 +7°C° 0 mm 1 mps 675 mmHg 85%
    03:00 +7°C° 0 mm 1 mps 674 mmHg 85%
    04:00 +7°C° 0 mm 1 mps 675 mmHg 85%
    05:00 +6°C° 0 mm 2 mps 675 mmHg 84%
    06:00 +6°C° 0 mm 2 mps 675 mmHg 84%
    07:00 +8°C° 0 mm 2 mps 675 mmHg 78%
    08:00 +10°C° 0 mm 3 mps 676 mmHg 71%
    09:00 +12°C° 0 mm 4 mps 676 mmHg 65%
    10:00 +12°C° 0.1 mm 5 mps 676 mmHg 61%
    11:00 +13°C° 0.1 mm 5 mps 676 mmHg 57%
    12:00 +14°C° 0.1 mm 6 mps 676 mmHg 54%
    13:00 +14°C° 0.1 mm 6 mps 675 mmHg 52%
    14:00 +14°C° 0.1 mm 5 mps 675 mmHg 51%
    15:00 +14°C° 0.1 mm 5 mps 675 mmHg 50%
    16:00 +13°C° 0 mm 4 mps 674 mmHg 53%
    17:00 +12°C° 0 mm 4 mps 674 mmHg 57%
    18:00 +11°C° 0 mm 3 mps 674 mmHg 60%
    19:00 +11°C° 0 mm 3 mps 674 mmHg 62%
    20:00 +10°C° 0 mm 2 mps 674 mmHg 64%
    21:00 +11°C° 0 mm 1 mps 674 mmHg 66%
    22:00 +9°C° 0 mm 2 mps 673 mmHg 66%
    23:00 +9°C° 0 mm 2 mps 673 mmHg 67%
    Show more